K9BM Weather Reports


Display with metric or nautical units.
time (UTC)temp
F
wind
direction
speed
MPH
gust
MPH
rain 1hr
in
rain 24hr
in
rain mn
in
humidity
%
barometer
mb
20260902122505 58 262 8.0 12.0 0.00 0.00 0.00 62 1002.8
20260902121506 58 257 7.0 12.0 0.00 0.00 0.00 62 1002.9
20260902121005 58 243 10.0 12.0 0.00 0.00 0.00 61 1003.1
20260902115505 60 239 7.0 10.0 0.00 0.00 0.00 59 1003.1
20260902115005 60 240 6.0 9.0 0.00 0.00 0.00 59 1003.3
20260902114506 60 232 6.0 9.0 0.00 0.00 0.00 59 1003.2
20260902114006 60 231 6.0 12.0 0.00 0.00 0.00 58 1003.1
20260902113506 61 235 6.0 12.0 0.00 0.00 0.00 58 1003.2
20260902113006 60 243 9.0 12.0 0.00 0.00 0.00 58 1003.2
20260902112505 61 245 8.0 10.0 0.00 0.00 0.00 58 1003.2
20260902111505 61 244 6.0 9.0 0.00 0.00 0.00 57 1003.2
20260902111005 61 257 6.0 9.0 0.00 0.00 0.00 57 1003.3
20260902110007 61 239 4.0 9.0 0.00 0.00 0.00 58 1003.5
20260902105505 61 193 7.0 10.0 0.00 0.00 0.00 58 1003.5
20260902105006 61 199 5.0 12.0 0.00 0.00 0.00 58 1003.5
20260902104506 62 231 6.0 13.0 0.00 0.00 0.00 58 1003.6
20260902104005 61 236 8.0 13.0 0.00 0.00 0.00 58 1003.7
20260902103505 61 231 8.0 12.0 0.00 0.00 0.00 58 1003.9
20260902103005 62 232 6.0 10.0 0.00 0.00 0.00 58 1003.9
20260902102505 62 230 6.0 12.0 0.00 0.00 0.00 58 1003.8
20260902102006 62 230 7.0 12.0 0.00 0.00 0.00 57 1004.1
20260902101505 62 231 7.0 12.0 0.00 0.00 0.00 57 1004.0
20260902101006 62 232 7.0 14.0 0.00 0.00 0.00 57 1004.0
20260902100005 63 237 9.0 22.0 0.00 0.00 0.00 55 1004.3
20260902095505 63 241 13.0 22.0 0.00 0.00 0.00 53 1004.2
20260902095005 64 234 10.0 18.0 0.00 0.00 0.00 52 1004.2
20260902094505 64 233 11.0 18.0 0.00 0.00 0.00 52 1004.2
20260902094005 64 235 10.0 17.0 0.00 0.00 0.00 51 1004.1
20260902093505 64 246 10.0 20.0 0.00 0.00 0.00 51 1004.2
20260902093005 64 248 16.0 20.0 0.00 0.00 0.00 52 1004.4
20260902092505 64 253 13.0 16.0 0.00 0.00 0.00 52 1004.3
20260902092005 63 267 11.0 15.0 0.00 0.00 0.00 53 1004.3
20260902091505 64 278 9.0 14.0 0.00 0.00 0.00 52 1004.1
20260902091005 64 283 8.0 13.0 0.00 0.00 0.00 51 1004.1
20260902090005 65 264 12.0 18.0 0.00 0.00 0.00 49 1004.1
20260902085505 64 267 9.0 15.0 0.00 0.00 0.00 51 1004.3
20260902085005 64 263 8.0 16.0 0.00 0.00 0.00 54 1004.6
20260902084506 64 269 12.0 16.0 0.00 0.00 0.00 53 1004.7
20260902084006 64 236 8.0 12.0 0.00 0.00 0.00 53 1004.7
20260902083006 64 269 8.0 10.0 0.00 0.00 0.00 55 1004.6
20260902082505 64 283 7.0 10.0 0.00 0.00 0.00 55 1004.6
20260902080005 64 273 9.0 13.0 0.00 0.00 0.00 53 1004.3
20260902075505 64 260 8.0 12.0 0.00 0.00 0.00 54 1004.4
20260902075005 63 266 7.0 14.0 0.00 0.00 0.00 55 1004.5
20260902074505 63 253 7.0 16.0 0.00 0.00 0.00 54 1004.4
20260902074005 63 265 12.0 16.0 0.00 0.00 0.00 54 1004.5
20260902073005 62 244 9.0 12.0 0.00 0.00 0.00 57 1003.9
20260902072505 62 244 8.0 9.0 0.00 0.00 0.00 57 1003.8
20260902072005 62 214 3.0 5.0 0.00 0.00 0.00 56 1003.7
20260902071505 62 208 1.0 6.0 0.00 0.00 0.00 56 1003.7
20260902071005 62 208 5.0 6.0 0.00 0.00 0.00 56 1003.7
20260902070007 62 205 2.0 3.0 0.00 0.00 0.00 58 1003.8
20260902065505 62 204 0.0 3.0 0.00 0.00 0.00 58 1003.9
20260902065005 62 204 2.0 3.0 0.00 0.00 0.00 58 1004.0
20260902064505 62 204 2.0 5.0 0.00 0.00 0.00 58 1003.9
20260902064005 62 204 3.0 6.0 0.00 0.00 0.00 58 1003.9
20260902063005 61 185 3.0 10.0 0.00 0.00 0.00 60 1004.0
20260902062505 60 175 7.0 10.0 0.00 0.00 0.00 60 1004.0
20260902062005 61 164 7.0 10.0 0.00 0.00 0.00 58 1004.0
20260902061505 62 166 8.0 10.0 0.00 0.00 0.00 57 1003.9
20260902061005 62 230 5.0 5.0 0.00 0.00 0.00 57 1003.8
20260902060005 62 234 4.0 6.0 0.00 0.00 0.00 56 1003.8
20260902055505 62 237 3.0 6.0 0.00 0.00 0.00 55 1003.8
20260902055005 62 223 6.0 6.0 0.00 0.00 0.00 56 1003.9
20260902054506 62 180 3.0 3.0 0.00 0.00 0.00 55 1004.0
20260902054005 62 179 2.0 6.0 0.00 0.00 0.00 55 1004.0
20260902053005 63 179 4.0 5.0 0.00 0.00 0.00 52 1004.2
20260902052505 63 178 2.0 5.0 0.00 0.00 0.00 52 1004.2
20260902052006 63 177 3.0 5.0 0.00 0.00 0.00 52 1004.3
20260902051505 63 177 3.0 6.0 0.00 0.00 0.00 52 1004.2
20260902051006 63 176 3.0 8.0 0.00 0.00 0.00 52 1004.3
20260902050007 64 146 3.0 5.0 0.00 0.00 0.00 52 1004.1
20260902045005 65 234 3.0 5.0 0.00 0.00 0.00 51 1004.0
20260902044505 66 234 4.0 6.0 0.00 0.00 0.00 50 1004.1
20260902044005 66 229 5.0 6.0 0.00 0.00 0.00 50 1004.1
20260902043505 66 230 5.0 6.0 0.00 0.00 0.00 50 1004.1
20260902043006 65 226 5.0 6.0 0.00 0.00 0.00 51 1004.1
20260902042505 65 227 4.0 8.0 0.00 0.00 0.00 51 1004.1
20260902042005 65 202 5.0 8.0 0.00 0.00 0.00 51 1004.0
20260902041505 65 200 6.0 8.0 0.00 0.00 0.00 51 1004.1
20260902041005 65 199 6.0 9.0 0.00 0.00 0.00 51 1004.0
20260902040005 65 198 7.0 9.0 0.00 0.00 0.00 51 1004.1
20260902035505 65 200 6.0 9.0 0.00 0.00 0.00 51 1004.2
20260902035005 65 200 5.0 8.0 0.00 0.00 0.00 52 1004.3
20260902034506 65 203 5.0 8.0 0.00 0.00 0.00 52 1004.3
20260902034005 65 204 4.0 6.0 0.00 0.00 0.00 52 1004.4
20260902033505 65 216 3.0 7.0 0.00 0.00 0.00 51 1004.4
20260902033005 66 211 5.0 7.0 0.00 0.00 0.00 51 1004.4
20260902032005 66 206 3.0 7.0 0.00 0.00 0.00 50 1004.3
20260902031505 66 199 5.0 7.0 0.00 0.00 0.00 50 1004.3
20260902031005 67 223 3.0 7.0 0.00 0.00 0.00 49 1004.3
20260902030005 67 212 5.0 9.0 0.00 0.00 0.00 48 1004.2
20260902025505 68 196 7.0 9.0 0.00 0.00 0.00 48 1004.2
20260902025005 68 203 4.0 7.0 0.00 0.00 0.00 47 1004.2
20260902024505 68 213 6.0 7.0 0.00 0.00 0.00 47 1004.2
20260902024005 69 235 5.0 9.0 0.00 0.00 0.00 47 1004.2
20260902023505 69 231 6.0 9.0 0.00 0.00 0.00 46 1004.1
20260902023005 68 231 5.0 8.0 0.00 0.00 0.00 46 1004.1
20260902022005 69 232 4.0 7.0 0.00 0.00 0.00 45 1003.8
20260902021505 69 223 4.0 7.0 0.00 0.00 0.00 45 1003.7
20260902021005 70 196 4.0 7.0 0.00 0.00 0.00 44 1003.5
20260902020005 71 228 2.0 5.0 0.00 0.00 0.00 44 1003.4
20260902015504 72 240 1.0 5.0 0.00 0.00 0.00 44 1003.4
20260902015005 72 314 0.0 3.0 0.00 0.00 0.00 44 1003.3
20260902014505 72 314 1.0 3.0 0.00 0.00 0.00 43 1003.4
20260902014005 73 314 2.0 3.0 0.00 0.00 0.00 43 1003.4
20260902013505 73 314 2.0 5.0 0.00 0.00 0.00 42 1003.4
20260902013005 74 314 3.0 5.0 0.00 0.00 0.00 41 1003.4
20260902012505 75 314 3.0 5.0 0.00 0.00 0.00 39 1003.4
20260902012005 76 314 3.0 3.0 0.00 0.00 0.00 37 1003.4
20260902011505 77 315 0.0 3.0 0.00 0.00 0.00 35 1003.5
20260902011005 78 315 1.0 6.0 0.00 0.00 0.00 34 1003.5
20260902010005 80 315 4.0 6.0 0.00 0.00 0.00 33 1003.6
20260902005505 81 183 2.0 5.0 0.00 0.00 0.00 31 1003.6
20260902004505 80 181 3.0 6.0 0.00 0.00 0.00 30 1003.6
20260902004005 80 163 1.0 7.0 0.00 0.00 0.00 31 1003.6
20260902002505 80 193 3.0 7.0 0.00 0.00 0.00 30 1003.6
20260902002005 79 195 5.0 9.0 0.00 0.00 0.00 31 1003.5
20260902001505 79 190 6.0 9.0 0.00 0.00 0.00 31 1003.7
20260902001005 80 202 5.0 8.0 0.00 0.00 0.00 30 1003.7
20260902000005 80 172 3.0 12.0 0.00 0.00 0.00 31 1003.8
20260901235504 80 141 7.0 13.0 0.00 0.00 0.00 32 1003.8
20260901234505 80 131 3.0 12.0 0.00 0.00 0.00 31 1003.9
20260901234005 80 121 7.0 13.0 0.00 0.00 0.00 32 1003.9
20260901233505 80 139 4.0 13.0 0.00 0.00 0.00 32 1003.9
20260901233005 80 144 7.0 12.0 0.00 0.00 0.00 32 1003.9
20260901232505 80 145 6.0 12.0 0.00 0.00 0.00 32 1004.0
20260901232005 80 150 2.0 13.0 0.00 0.00 0.00 33 1004.0
20260901231505 79 160 4.0 13.0 0.00 0.00 0.00 32 1004.1
20260901231005 79 130 7.0 10.0 0.00 0.00 0.00 33 1004.1
20260901230005 79 152 0.0 6.0 0.00 0.00 0.00 33 1004.4
20260901225504 79 141 1.0 12.0 0.00 0.00 0.00 33 1004.4
20260901225005 79 144 5.0 16.0 0.00 0.00 0.00 32 1004.5
20260901224005 80 158 8.0 12.0 0.00 0.00 0.00 33 1004.5
20260901223504 79 195 6.0 14.0 0.00 0.00 0.00 33 1004.7
20260901223006 78 171 6.0 14.0 0.00 0.00 0.00 34 1004.7
20260901222505 77 172 5.0 9.0 0.00 0.00 0.00 35 1004.7
20260901222005 76 158 2.0 8.0 0.00 0.00 0.00 37 1004.7
20260901221005 75 222 2.0 10.0 0.00 0.00 0.00 42 1004.8
20260901220005 74 247 7.0 10.0 0.00 0.00 0.00 40 1005.0
20260901215504 74 271 6.0 12.0 0.00 0.00 0.00 40 1005.0
20260901215004 74 266 7.0 13.0 0.00 0.00 0.00 40 1005.0
20260901214505 74 273 9.0 13.0 0.00 0.00 0.00 40 1005.0
20260901213505 75 271 9.0 14.0 0.00 0.00 0.00 38 1005.2
20260901213005 76 273 10.0 14.0 0.00 0.00 0.00 36 1005.2
20260901212505 76 257 8.0 13.0 0.00 0.00 0.00 36 1005.3
20260901211505 76 281 6.0 13.0 0.00 0.00 0.00 37 1005.3
20260901211005 76 266 9.0 13.0 0.00 0.00 0.00 37 1005.4
20260901210005 76 273 7.0 12.0 0.00 0.00 0.00 36 1005.5
20260901205504 76 275 7.0 12.0 0.00 0.00 0.00 37 1005.5
20260901205005 75 252 8.0 12.0 0.00 0.00 0.00 36 1005.5
20260901204505 75 287 8.0 13.0 0.00 0.00 0.00 37 1005.5
20260901204005 76 292 9.0 13.0 0.00 0.00 0.00 37 1005.4
20260901203505 75 261 7.0 12.0 0.00 0.00 0.00 38 1005.5
20260901203005 75 272 7.0 13.0 0.00 0.00 0.00 39 1005.5
20260901202505 75 270 9.0 14.0 0.00 0.00 0.00 39 1005.6
20260901201505 74 272 12.0 15.0 0.00 0.00 0.00 40 1005.7
20260901201004 74 273 11.0 15.0 0.00 0.00 0.00 40 1005.8
20260901200005 74 283 11.0 15.0 0.00 0.00 0.00 42 1005.9
20260901195005 73 273 10.0 15.0 0.00 0.00 0.00 42 1006.1
20260901194504 72 269 12.0 16.0 0.00 0.00 0.00 44 1006.2
20260901194005 72 277 12.0 16.0 0.00 0.00 0.00 43 1006.2
20260901193505 72 270 12.0 16.0 0.00 0.00 0.00 44 1006.3
20260901193004 72 263 10.0 14.0 0.00 0.00 0.00 44 1006.4
20260901192505 72 273 8.0 15.0 0.00 0.00 0.00 45 1006.5
20260901192005 71 279 10.0 15.0 0.00 0.00 0.00 45 1006.6
20260901191505 71 273 10.0 15.0 0.00 0.00 0.00 46 1006.6
20260901191005 71 281 10.0 14.0 0.00 0.00 0.00 45 1006.8
20260901185505 70 271 11.0 15.0 0.00 0.00 0.00 46 1007.1
20260901184505 70 271 12.0 16.0 0.00 0.00 0.00 46 1007.1
20260901184005 70 283 10.0 16.0 0.00 0.00 0.00 45 1007.2
20260901183504 71 281 12.0 17.0 0.00 0.00 0.00 44 1007.3
20260901183005 71 272 9.0 20.0 0.00 0.00 0.00 43 1007.2
20260901182504 71 276 13.0 20.0 0.00 0.00 0.00 42 1007.2
20260901182004 71 282 12.0 20.0 0.00 0.00 0.00 43 1007.3
20260901181504 71 283 12.0 20.0 0.00 0.00 0.00 43 1007.3
20260901180005 71 285 13.0 20.0 0.00 0.00 0.00 44 1007.3
20260901175504 71 277 14.0 22.0 0.00 0.00 0.00 42 1007.4
20260901175004 71 277 16.0 22.0 0.00 0.00 0.00 42 1007.4
20260901174504 71 278 12.0 20.0 0.00 0.00 0.00 44 1007.5
20260901174007 70 272 13.0 20.0 0.00 0.00 0.00 44 1007.5
20260901173504 69 273 14.0 20.0 0.00 0.00 0.00 46 1007.5
20260901173005 69 270 14.0 18.0 0.00 0.00 0.00 48 1007.5
20260901172505 68 278 12.0 18.0 0.00 0.00 0.00 48 1007.6
20260901172005 68 268 12.0 20.0 0.00 0.00 0.00 49 1007.6
20260901171505 67 257 13.0 20.0 0.00 0.00 0.00 49 1007.6
20260901171004 67 255 13.0 20.0 0.00 0.00 0.00 50 1007.7
20260901170005 66 257 13.0 20.0 0.00 0.00 0.00 49 1007.7
20260901165504 66 255 12.0 15.0 0.00 0.00 0.00 47 1007.6
20260901165004 66 262 9.0 14.0 0.00 0.00 0.00 45 1007.7
20260901164504 66 243 7.0 12.0 0.00 0.00 0.00 46 1007.7
20260901164004 65 255 9.0 12.0 0.00 0.00 0.00 45 1007.6
20260901163504 66 273 7.0 12.0 0.00 0.00 0.00 44 1007.5
20260901162504 65 245 10.0 14.0 0.00 0.00 0.00 43 1007.4
20260901161505 64 242 10.0 14.0 0.00 0.00 0.00 45 1007.4
20260901161005 64 261 9.0 12.0 0.00 0.00 0.00 42 1007.4
20260901160004 62 253 9.0 15.0 0.00 0.00 0.00 43 1007.4
20260901155005 60 250 11.0 14.0 0.00 0.00 0.00 47 1007.4
20260901154505 58 264 10.0 12.0 0.00 0.00 0.00 50 1007.5
20260901154005 58 275 5.0 8.0 0.00 0.00 0.00 50 1007.6
20260901153004 61 240 3.0 13.0 0.00 0.00 0.00 53 1007.9
20260901151504 61 275 9.0 13.0 0.00 0.00 0.00 49 1007.3
20260901151004 61 274 6.0 9.0 0.00 0.00 0.00 44 1007.5
20260901150005 61 247 6.0 10.0 0.00 0.00 0.00 44 1007.8
20260901145505 60 248 7.0 10.0 0.00 0.00 0.00 44 1008.0
20260901145004 60 246 7.0 10.0 0.00 0.00 0.00 44 1007.9
20260901144505 59 259 7.0 9.0 0.00 0.00 0.00 45 1007.9
20260901143504 59 244 5.0 6.0 0.00 0.00 0.00 48 1008.1
20260901143004 58 237 5.0 6.0 0.00 0.00 0.00 49 1008.1
20260901142504 58 227 3.0 5.0 0.00 0.00 0.00 49 1008.1
20260901142005 57 226 3.0 6.0 0.00 0.00 0.00 50 1008.0
20260901141504 57 224 5.0 7.0 0.00 0.00 0.00 50 1008.1
20260901141004 57 206 3.0 7.0 0.00 0.00 0.00 51 1008.1
20260901140005 57 200 0.0 0.0 0.00 0.00 0.00 53 1008.1
20260901135511 56 200 0.0 0.0 0.00 0.00 0.00 52 1008.1
20260901134505 56 201 0.0 0.0 0.00 0.00 0.00 53 1008.0
20260901134004 55 200 0.0 0.0 0.00 0.00 0.00 55 1007.9
20260901133004 55 199 0.0 3.0 0.00 0.00 0.00 54 1007.9
20260901132504 54 199 2.0 3.0 0.00 0.00 0.00 55 1007.8
20260901132004 54 199 0.0 1.0 0.00 0.00 0.00 54 1007.8
20260901131504 53 199 0.0 1.0 0.00 0.00 0.00 56 1007.7
20260901131004 52 199 0.0 3.0 0.00 0.00 0.00 58 1007.5
20260901130004 53 199 2.0 7.0 0.00 0.00 0.00 56 1007.5
20260901125504 53 197 5.0 7.0 0.00 0.00 0.00 56 1007.5
20260901125004 54 194 5.0 6.0 0.00 0.00 0.00 54 1007.5
20260901124505 55 200 3.0 5.0 0.00 0.00 0.00 53 1007.5
20260901124005 54 201 0.0 1.0 0.00 0.00 0.00 51 1007.5